星链-33697 (STARLINK-33697)

导读

STARLINK-33697是美国星链计划的低轨通信卫星,于2025年4月6日发射入轨,隶属于太空探索技术公司SpaceX运营。它是星链卫星互联网星座的组成单元,旨在为全球范围用户提供高速低延迟的宽带互联网服务,补充和扩展星座的覆盖容量与通信能力,进一步完善星链系统的全球服务网络。

Basic Information
目录编号:
63467
目录名称:
STARLINK-33697
国际标识:
2025-070H
轨道中心:
EARTH
卫星名称:
星链-33697
卫星全名:
星链-33697 (STARLINK-33697)
卫星状态:
在轨 (已飞行524 天)
发射日期:
2025-04-06 UTC
国别 :
美国 (US)
星等 :
--
This satellite is enrolled in the Space Conjunction Data Service (SCDS) and the current flight risk assessment level is: High Risk
Orbit Information
数据来源 国际轨道数据
星历时间: 2026-09-11T20:04:12+0800
18小时前
查看轨道信息
半长轴: 6861.119km
偏心率: 0.0002422
轨道倾角: 43.004°
近地点辐角 286.622°
升交点赤经 290.490°
平近点角 73.437°
近地点: 481.32km
远地点: 484.644km
周期: 94.265分钟
每日圈数: 15.276027
Detailed Information
固有亮度:
5
最大亮度:
2.5
卫星平台:
Starlink V1.0
覆盖范围:
全球
运营商:
太空探索技术公司
运营商所在国:
美国
制造商(研发单位):
太空探索技术公司
制造商所在国:
美国
使用方式:
暂无
Satellite Introduction
Starlink 计划是 SpaceX 推出的全球卫星互联网项目,通过发射低轨道卫星,为全球尤其是偏远地区提供高速、低延迟的互联网服务。自 2019 年起,Starlink 已部署数千颗卫星,旨在缩小全球数字鸿沟,推动互联网普及。该项目还为军事、航空等行业提供通信支持,带来广泛经济效益。
2D Orbit Map
3D Orbit Map
Orbit Altitude Analysis Chart
Orbit Inclination Analysis Chart
Orbit Comprehensive Analysis Chart
View Comprehensive Chart
Conjunction Data List
Event ID Objects TCA Miss Dist (km) Collision Risk Probability Collision Risk Index (CRI) Action
CDM_260913-222506-346706-407721
2026-09-13T
22:25:35+0000
0.080 km
近距离
1.118818E-3 极高风险 0.96
CDM_260913-121306-346706-407721
2026-09-13T
12:13:36+0000
0.477 km
远距离
1.218069E-4 高风险 0.77
CDM_260913-103906-346706-407721
2026-09-13T
10:39:27+0000
1.132 km
极远距离
8.309391E-6 低风险 0.53
CDM_260913-205106-346706-407721
2026-09-13T
20:51:26+0000
1.348 km
极远距离
4.61098E-6 低风险 0.48
CDM_260914-131705-974106-346721
2026-09-14T
13:17:59+0000
1.479 km
极远距离
3.995584E-6 低风险 0.47
CDM_260913-235906-346706-407721
2026-09-13T
23:59:44+0000
1.508 km
极远距离
3.214238E-6 低风险 0.45
CDM_260913-134706-346706-407722
2026-09-13T
13:47:45+0000
1.596 km
极远距离
2.703202E-6 低风险 0.44
CDM_260914-043006-346706-388821
2026-09-14T
04:30:16+0000
2.985 km
极远距离
1.223954E-6 低风险 0.37
CDM_260913-090506-346706-407721
2026-09-13T
09:05:17+0000
2.359 km
极远距离
1.041093E-6 低风险 0.35
CDM_260913-191706-346706-407721
2026-09-13T
19:17:17+0000
2.746 km
极远距离
8.190547E-7 极低风险 0.33
Miss Distance Evolution Trend with All Objects
Collision Probability Evolution Trend with All Objects